Regional Weather Roundup
Issued by NWS

Home | Current Version | Previous Version | Graphics & Text | Print | Product List | Glossary On
Versions: 1 2 3 4 5 6 7 8 9 10 11 12 13 14 15 16 17 18 19 20 21 22 23 24 25 26 27 28 29 30 31 32 33 34 35 36 37 38 39 40 41 42 43 44 45 46 47 48 49 50
000
ASUS43 KBIS 270310
RWRND

NORTH DAKOTA REGIONAL WEATHER ROUNDUP
NATIONAL WEATHER SERVICE BISMARCK ND
900 PM CST FRI DEC 26 2014

NOTE: "FAIR" INDICATES FEW OR NO CLOUDS BELOW 12,000 FEET WITH NO
SIGNIFICANT WEATHER AND/OR OBSTRUCTIONS TO VISIBILITY.


NDZ001>003-009>011-017-270400-
NORTHWEST NORTH DAKOTA

CITY           SKY/WX    TMP DP  RH WIND       PRES   REMARKS
WILLISTON      CLOUDY    20  15  81 CALM      30.12F
MINOT          CLOUDY     9   3  77 SE3       30.15F
MINOT AFB      CLOUDY     7   4  86 S5        30.16F WCI  -1
$$

NDZ018>021-031>035-040>046-270400-
SOUTHWEST NORTH DAKOTA

CITY           SKY/WX    TMP DP  RH WIND       PRES   REMARKS
BISMARCK       PTCLDY     3   0  87 CALM      30.20S
DICKINSON      PTCLDY     9   5  84 S7        30.09F WCI  -2
GARRISON         N/A     10   6  84 NW5       30.14F WCI   2
HETTINGER ARPT CLEAR      6   2  83 CALM      30.13R
$$

NDZ004>008-012>016-024-026-027-054-270400-
NORTHEAST NORTH DAKOTA

CITY           SKY/WX    TMP DP  RH WIND       PRES   REMARKS
GRAND FORKS    FLURRIES   7   4  87 N6        30.25S WCI  -3
GRND FRKS AFB  CLOUDY     3   2  97 NW5       30.25S WCI  -6
DEVILS LAKE    PTCLDY     0  -6  78 W3        30.17F
$$

NDZ022-023-025-028>030-036>039-047>053-270400-
SOUTHEAST NORTH DAKOTA

CITY           SKY/WX    TMP DP  RH WIND       PRES   REMARKS
FARGO          MOCLDY    11   4  73 N10       30.24S WCI  -3
JAMESTOWN      PTCLDY     4   0  83 NW5       30.18F WCI  -5
$$



USA.gov is the U.S. government's official web portal to all federal, state and local government web resources and services.